Maun, Botswana

12:38 AM CAT on March 30, 2017 (GMT +0200)
Maun

Weather History for FBMN - January, 2014

Change the Weather History Date:

Saturday, January 11, 2014

  Actual Average Record
Temperature  
Mean Temperature 82 °F -  
Max Temperature 93 °F 88 °F 98 °F (2001)
Min Temperature 70 °F 69 °F 57 °F (2017)
Cooling Degree Days 16    
Growing Degree Days 32 (Base 50)    
Moisture  
Dew Point 62 °F    
Average Humidity 50    
Maximum Humidity 73    
Minimum Humidity 18    
Precipitation  
Precipitation 0.00 in - - ()
Sea Level Pressure  
Sea Level Pressure 29.99 in    
Wind  
Wind Speed 5 mph ()    
Max Wind Speed 12 mph    
Max Gust Speed -    
Visibility 6.1 miles    
Events      
Averages and records for this station are not official NWS values.
T = Trace of Precipitation, MM = Missing Value Source: Averaged Metar Reports

Daily Weather History Graph

Daily Weather History Graph

Search for Another Location

Airport or City:

Trip Planner

Search our weather history database for the weather conditions in past years. The results will help you decide how hot, cold, wet, or windy it might be!

Date:

Astronomy

Jan. 11, 2014 Rise Set
Actual Time 5:56 AM CAT 7:11 PM CAT
Civil Twilight 5:32 AM CAT 7:35 PM CAT
Nautical Twilight 5:03 AM CAT 8:04 PM CAT
Astronomical Twilight 4:34 AM CAT 8:34 PM CAT
Moon 3:25 PM CAT (1/11) 2:05 AM CAT (1/11)
Length of Visible Light 14h 03m
Length of Day
13h 14m
Waxing Gibbous, 81% of the Moon is Illuminated
Jan 11
Waxing Gibbous
Jan 16
Full
Jan 24
Last Quarter
Jan 30
New
Feb 6
First Quarter

Hourly Weather History & Observations

Time (CAT) Temp. Heat Index Dew Point Humidity Pressure Visibility Wind Dir Wind Speed Gust Speed Precip Events Conditions
12:00 AM 75.2 °F - 57.2 °F 53% 29.95 in - Variable 2.3 mph - N/A   Clear
1:00 AM 75.2 °F - 57.2 °F 53% 29.95 in - NE 3.5 mph - N/A   Clear
2:00 AM 72 °F - 58 °F 52%  in 6 mi NE 3.5 mph - -   Partly Cloudy
2:00 AM 71.6 °F - 57.2 °F 60% 29.92 in - NE 3.5 mph - N/A   Clear
5:00 AM 70 °F - 59 °F 59%  in 6 mi NE 8.1 mph - -   Partly Cloudy
5:00 AM 69.8 °F - 59.0 °F 68% 29.95 in - NE 8.1 mph - N/A   Clear
6:00 AM 71.6 °F - 62.6 °F 73% 29.95 in - ENE 5.8 mph - N/A   Clear
7:00 AM 73.4 °F - 64.4 °F 73% 30.01 in - NNE 5.8 mph - N/A   Clear
8:00 AM 77 °F - 67 °F 64%  in 6 mi NNE 8.1 mph - -   Partly Cloudy
8:00 AM 77.0 °F - 66.2 °F 69% 30.01 in - NNE 8.1 mph - N/A   Clear
9:00 AM 80.6 °F 82.7 °F 66.2 °F 61% 30.04 in - NNE 10.4 mph - N/A   Clear
10:00 AM 84.2 °F 86.6 °F 66.2 °F 55% 30.04 in - NNE 5.8 mph - N/A   Clear
11:00 AM 87 °F - 67 °F 41%  in 6 mi NNE 9.2 mph - -   Partly Cloudy
11:00 AM 86.0 °F 88.2 °F 66.2 °F 51% 30.04 in - NNE 9.2 mph - N/A   Clear
12:00 PM 89.6 °F 92.2 °F 66.2 °F 46% 30.04 in 6.2 mi North 5.8 mph - N/A   Partly Cloudy
1:00 PM 89.6 °F 92.2 °F 66.2 °F 46% 30.01 in 6.2 mi ENE 3.5 mph - N/A   Partly Cloudy
2:00 PM 91 °F - 63 °F 29%  in 6 mi Calm Calm - -   Partly Cloudy
2:00 PM 91.4 °F 92.1 °F 62.6 °F 38% 30.01 in 6.2 mi Calm Calm - N/A   Scattered Clouds
3:00 PM 93.2 °F 92.6 °F 59.0 °F 32% 29.98 in 6.2 mi NE 4.6 mph - N/A   Partly Cloudy
4:00 PM 93.2 °F 90.8 °F 53.6 °F 26% 29.92 in 6.2 mi NNW 3.5 mph - N/A   Partly Cloudy
5:00 PM 94 °F - 55 °F 18%  in 6 mi WSW 3.5 mph - -   Partly Cloudy
5:00 PM 93.2 °F 91.3 °F 55.4 °F 28% 29.92 in 6.2 mi WSW 3.5 mph - N/A   Partly Cloudy
6:00 PM 93.2 °F 91.9 °F 57.2 °F 30% 29.95 in 6.2 mi SSW 5.8 mph - N/A   Partly Cloudy
7:00 PM 89.6 °F 88.1 °F 57.2 °F 33% 29.98 in 6.2 mi South 3.5 mph - N/A   Partly Cloudy
8:00 PM 80 °F - 64 °F 48%  in 6 mi ENE 6.9 mph - -   Partly Cloudy
8:00 PM 80.6 °F 82.3 °F 64.4 °F 58% 30.01 in 6.2 mi ENE 6.9 mph - N/A   Partly Cloudy
9:00 PM 78.8 °F - 60.8 °F 54% 30.04 in 6.2 mi East 8.1 mph - N/A   Partly Cloudy
10:00 PM 77.0 °F - 62.6 °F 61% 30.06 in 6.2 mi East 11.5 mph - N/A   Partly Cloudy
11:00 PM 76 °F - 63 °F 55%  in 6 mi SSE 9.2 mph - -   Partly Cloudy
11:00 PM 77.0 °F - 62.6 °F 61% 30.06 in 6.2 mi SSE 9.2 mph - N/A   Partly Cloudy